Regional Weather Roundup
Issued by NWS

Home | Current Version | Previous Version | Graphics & Text | Print | Product List | Glossary On
Versions: 1 2 3 4 5 6 7 8 9 10 11 12 13 14 15 16 17 18 19 20 21 22 23 24 25 26 27 28 29 30 31 32 33 34 35 36 37 38 39 40 41 42 43 44 45 46 47 48 49 50
000
ASUS43 KLMK 280310
RWRKY
KENTUCKY REGIONAL WEATHER ROUNDUP
NATIONAL WEATHER SERVICE LOUISVILLE KY
1100 PM EDT MON JUL 27 2015

NOTE "FAIR" INDICATES FEW OR NO CLOUDS BELOW 12,000 FEET
WITH NO SIGNIFICANT WEATHER AND/OR OBSTRUCTIONS TO VISIBILITY.

KYZ001>023-026-027-061>063-070>075-280400-
WESTERN AND SOUTH CENTRAL KENTUCKY

CITY           SKY/WX    TMP DP  RH WIND       PRES   REMARKS
PADUCAH        CLOUDY    79  73  82 E3        29.96R
HENDERSON      CLOUDY    77  72  83 SW7       29.97R
OWENSBORO      CLOUDY    82  78  88 SW13      29.98R HX  91
HOPKINSVILLE   CLOUDY    78  71  78 N10       29.99R
BOWLING GREEN  PTCLDY    79  71  76 CALM      29.99R
GLASGOW        MOCLDY    76  74  94 CALM      30.00S
$$

KYZ024-025-028>034-038-045-046-053-280400-
NORTH CENTRAL KENTUCKY

CITY           SKY/WX    TMP DP  RH WIND       PRES   REMARKS
LOUISVILLE/SDF PTCLDY    84  75  74 SW6       29.97R HX  92
LOUISVILLE/LOU PTCLDY    84  74  71 S3        29.98R HX  91
FORT KNOX      CLEAR     76  74  93 CALM      29.98R
$$

KYZ035>037-039>044-047>052-055>060-089>105-280400-
NORTHEAST KENTUCKY

CITY           SKY/WX    TMP DP  RH WIND       PRES   REMARKS
LEXINGTON      CLEAR     78  73  84 CALM      30.01R
COVINGTON      MOCLDY    79  71  76 E8        30.01R
FRANKFORT      PTCLDY    78  73  84 CALM      29.99R
$$

KYZ054-064>069-076>088-106>120-280400-
SOUTHEAST KENTUCKY

CITY           SKY/WX    TMP DP  RH WIND       PRES   REMARKS
JACKSON        PTCLDY    75  72  90 CALM      30.03R
LONDON         CLEAR     74  70  87 CALM      30.04R
SOMERSET       CLEAR     73  73 100 CALM      30.03R
MIDDLESBORO    MOCLDY    73  72  98 CALM      30.05S
MONTICELLO     PTCLDY    75  75 100 CALM      30.05R FOG
$$




USA.gov is the U.S. government's official web portal to all federal, state and local government web resources and services.